Regional Weather Roundup
Issued by NWS Sioux Falls, SD

Home | Current Version | Previous Version | Text Only | Print | Product List | Glossary Off
Versions: 1 2 3 4 5 6 7 8 9 10 11 12 13 14 15 16 17 18 19 20 21 22 23 24 25 26 27 28 29 30 31 32 33 34 35 36 37 38 39 40 41 42 43 44 45 46 47 48 49 50

000
ASUS43 KFSD 292010
RWRFSD

WEATHER ROUNDUP FOR SE SOUTH DAKOTA/SW MINNESOTA/NW IOWA
NATIONAL WEATHER SERVICE SIOUX FALLS SD
300 PM CDT SAT AUG 29 2015

NOTE: "FAIR" INDICATES FEW OR NO CLOUDS BELOW 12,000 FEET WITH NO
SIGNIFICANT WEATHER AND OR OBSTRUCTIONS TO VISIBILITY.


SDZ038>040-050-052>070-292100-
SOUTHEAST SOUTH DAKOTA

CITY           SKY/WX    TMP DP  RH WIND       PRES   REMARKS
BROOKINGS      MOSUNNY   75  63  64 S10       30.03F
CHAMBERLAIN    SUNNY     83  69  62 S8        29.98F
HURON          SUNNY     83  69  62 S14       29.95F
MADISON        FAIR      75  68  78 S10       30.03F
MITCHELL       SUNNY     80  69  69 S12G17    29.99F
SIOUX FALLS    CLOUDY    71  62  73 S7        30.04F
WINNER         FAIR      89  64  43 S8        29.99F
YANKTON        MOSUNNY   73  64  73 E7        30.03F
$$

MNZ071-072-080-081-089-090-097-098-292100-
SOUTHWEST MINNESOTA

CITY           SKY/WX    TMP DP  RH WIND       PRES   REMARKS
FAIRMONT       PTSUNNY   66  57  72 S7        30.05F
JACKSON        MOSUNNY   73  64  73 S3        30.06S
LUVERNE        PTSUNNY   72  61  68 S5        30.05F
MARSHALL       PTSUNNY   77  61  57 SW8       30.03F
MONTEVIDEO     CLOUDY    79  64  61 S8        30.02F
PIPESTONE      PTSUNNY   73  64  73 S8        30.04F
REDWOOD FALLS  MOSUNNY   73  62  68 S7        30.03S
TRACY          MOSUNNY   75  64  70 S5        30.04S
WINDOM         SUNNY     75  63  64 CALM      30.05S
WORTHINGTON    SUNNY     72  63  73 SW7       30.06S
$$

IAZ001>003-012>014-020>022-031-032-NEZ013-014-SDZ071-292100-
NORTHWEST IOWA

CITY           SKY/WX    TMP DP  RH WIND       PRES   REMARKS
CHEROKEE       PTSUNNY   68  64  86 W5        30.07S
DENISON        CLOUDY    68  63  83 CALM      30.05F
ESTHERVILLE    MOSUNNY   68  62  81 SE7       30.06S
LE MARS          N/A     68  63  83 CALM      30.07F
ORANGE CITY    MOSUNNY   68  63  83 CALM      30.07S
SHELDON        MOSUNNY   70  63  78 CALM      30.05F
SIOUX CITY     SUNNY     71  62  73 SE8       30.06F
SPENCER        MOSUNNY   71  62  73 S6        30.06F
STORM LAKE     CLOUDY    66  63  88 CALM      30.08S
$$

ABBREVIATIONS USED IN REMARKS
   TC - TEMPERATURE IN CELSIUS
  WCI - WIND CHILL INDEX
   HX - HEAT INDEX
  VSB - VISIBILITY



USA.gov is the U.S. government's official web portal to all federal, state and local government web resources and services.